date,time,SUV Intensity [MED/Hr],UV Index,Daily total [MED],Since Last [MED]
12/07/2023,23:58:52,-0.000,0.0,9.831,9.831
12/07/2023,23:59:53,-0.000,0.0,9.831,0.0
13/07/2023,00:00:52,0.000,0.0,0.0,-9.831
13/07/2023,00:01:53,0.000,0.0,0.0,0.0
13/07/2023,00:02:52,0.000,0.0,0.0,0.0
13/07/2023,00:03:52,-0.000,0.0,0.0,0.0
13/07/2023,00:04:52,0.000,0.0,0.0,0.0
13/07/2023,00:05:53,0.000,0.0,0.0,0.0
13/07/2023,00:06:53,-0.000,0.0,0.0,0.0
13/07/2023,00:07:53,0.000,0.0,0.0,0.0
13/07/2023,00:08:52,0.000,0.0,0.0,0.0
13/07/2023,00:09:53,0.001,0.0,0.0,0.0
13/07/2023,00:10:52,0.000,0.0,0.0,0.0
13/07/2023,00:11:53,-0.000,0.0,0.0,0.0
13/07/2023,00:12:52,0.000,0.0,0.0,0.0
13/07/2023,00:13:52,0.000,0.0,0.0,0.0
13/07/2023,00:14:53,-0.000,0.0,0.0,0.0
13/07/2023,00:15:52,0.000,0.0,0.0,0.0
13/07/2023,00:16:52,-0.000,0.0,0.0,0.0
13/07/2023,00:17:53,0.000,0.0,0.0,0.0
13/07/2023,00:18:52,0.000,0.0,0.0,0.0
13/07/2023,00:19:53,-0.000,0.0,0.0,0.0
13/07/2023,00:20:53,0.000,0.0,0.0,0.0
13/07/2023,00:21:53,0.000,0.0,0.0,0.0
13/07/2023,00:22:53,-0.000,0.0,0.0,0.0
13/07/2023,00:23:52,0.001,0.0,0.0,0.0
13/07/2023,00:24:52,0.000,0.0,0.0,0.0
13/07/2023,00:25:53,0.000,0.0,0.0,0.0
13/07/2023,00:26:52,-0.000,0.0,0.0,0.0
13/07/2023,00:27:53,0.000,0.0,0.0,0.0
13/07/2023,00:28:53,0.000,0.0,0.0,0.0
13/07/2023,00:29:52,0.000,0.0,0.0,0.0
13/07/2023,00:30:53,0.000,0.0,0.0,0.0
13/07/2023,00:31:52,0.000,0.0,0.0,0.0
13/07/2023,00:32:53,0.000,0.0,0.0,0.0
13/07/2023,00:33:52,0.000,0.0,0.0,0.0
13/07/2023,00:34:53,0.000,0.0,0.0,0.0
13/07/2023,00:35:53,0.000,0.0,0.0,0.0
13/07/2023,00:36:52,0.000,0.0,0.0,0.0
13/07/2023,00:37:52,0.000,0.0,0.0,0.0
13/07/2023,00:38:52,0.000,0.0,0.0,0.0
13/07/2023,00:39:52,0.000,0.0,0.0,0.0
13/07/2023,00:40:53,-0.000,0.0,0.0,0.0
13/07/2023,00:41:52,0.000,0.0,0.0,0.0
13/07/2023,00:42:53,-0.000,0.0,0.0,0.0
13/07/2023,00:43:53,0.000,0.0,0.0,0.0
13/07/2023,00:44:52,-0.000,0.0,0.0,0.0
13/07/2023,00:45:53,-0.000,0.0,0.0,0.0
13/07/2023,00:46:53,-0.000,0.0,0.0,0.0
13/07/2023,00:47:52,0.000,0.0,0.0,0.0
13/07/2023,00:48:52,-0.000,0.0,0.0,0.0
13/07/2023,00:49:53,0.000,0.0,0.0,0.0
13/07/2023,00:50:53,0.000,0.0,0.0,0.0
13/07/2023,00:51:52,0.000,0.0,0.0,0.0
13/07/2023,00:52:53,-0.000,0.0,0.0,0.0
13/07/2023,00:53:52,0.000,0.0,0.0,0.0
13/07/2023,00:54:53,0.000,0.0,0.0,0.0
13/07/2023,00:55:52,-0.000,0.0,0.0,0.0
13/07/2023,00:56:52,0.000,0.0,0.0,0.0
13/07/2023,00:57:52,-0.000,0.0,0.0,0.0
13/07/2023,00:58:52,-0.000,0.0,0.0,0.0
13/07/2023,00:59:53,-0.000,0.0,0.0,0.0
13/07/2023,01:00:52,-0.000,0.0,0.0,0.0
13/07/2023,01:01:53,0.000,0.0,0.0,0.0
13/07/2023,01:02:52,-0.000,0.0,0.0,0.0
13/07/2023,01:03:53,0.000,0.0,0.0,0.0
13/07/2023,01:04:52,0.000,0.0,0.0,0.0
13/07/2023,01:05:53,0.000,0.0,0.0,0.0
13/07/2023,01:06:53,-0.000,0.0,0.0,0.0
13/07/2023,01:07:52,-0.000,0.0,0.0,0.0
13/07/2023,01:08:52,-0.000,0.0,0.0,0.0
13/07/2023,01:09:52,-0.000,0.0,0.0,0.0
13/07/2023,01:10:52,0.000,0.0,0.0,0.0
13/07/2023,01:11:53,-0.000,0.0,0.0,0.0
13/07/2023,01:12:52,-0.000,0.0,0.0,0.0
13/07/2023,01:13:52,0.000,0.0,0.0,0.0
13/07/2023,01:14:53,-0.000,0.0,0.0,0.0
13/07/2023,01:15:53,-0.000,0.0,0.0,0.0
13/07/2023,01:16:53,-0.000,0.0,0.0,0.0
13/07/2023,01:17:53,-0.000,0.0,0.0,0.0
13/07/2023,01:18:52,-0.000,0.0,0.0,0.0
13/07/2023,01:19:54,-0.000,0.0,0.0,0.0
13/07/2023,01:20:52,-0.000,0.0,0.0,0.0
13/07/2023,01:21:52,-0.000,0.0,0.0,0.0
13/07/2023,01:22:53,-0.000,0.0,0.0,0.0
13/07/2023,01:23:52,0.000,0.0,0.0,0.0
13/07/2023,01:24:53,-0.000,0.0,0.0,0.0
13/07/2023,01:25:53,-0.000,0.0,0.0,0.0
13/07/2023,01:26:52,-0.000,0.0,0.0,0.0
13/07/2023,01:27:52,0.000,0.0,0.0,0.0
13/07/2023,01:28:52,-0.000,0.0,0.0,0.0
13/07/2023,01:29:53,-0.000,0.0,0.0,0.0
13/07/2023,01:30:53,-0.000,0.0,0.0,0.0
13/07/2023,01:31:52,-0.000,0.0,0.0,0.0
13/07/2023,01:32:53,0.000,0.0,0.0,0.0
13/07/2023,01:33:52,-0.000,0.0,0.0,0.0
13/07/2023,01:34:53,0.000,0.0,0.0,0.0
13/07/2023,01:35:53,-0.000,0.0,0.0,0.0
13/07/2023,01:36:52,0.000,0.0,0.0,0.0
13/07/2023,01:37:53,0.000,0.0,0.0,0.0
13/07/2023,01:38:53,-0.000,0.0,0.0,0.0
13/07/2023,01:39:53,0.000,0.0,0.0,0.0
13/07/2023,01:40:53,-0.000,0.0,0.0,0.0
13/07/2023,01:41:53,0.000,0.0,0.0,0.0
13/07/2023,01:42:53,0.000,0.0,0.0,0.0
13/07/2023,01:43:53,0.000,0.0,0.0,0.0
13/07/2023,01:44:52,0.000,0.0,0.0,0.0
13/07/2023,01:45:53,0.001,0.0,0.0,0.0
13/07/2023,01:46:53,-0.000,0.0,0.0,0.0
13/07/2023,01:47:52,0.000,0.0,0.0,0.0
13/07/2023,01:48:52,-0.000,0.0,0.0,0.0
13/07/2023,01:49:53,-0.000,0.0,0.0,0.0
13/07/2023,01:50:52,-0.000,0.0,0.0,0.0
13/07/2023,01:51:52,-0.000,0.0,0.0,0.0
13/07/2023,01:52:52,0.000,0.0,0.0,0.0
13/07/2023,01:53:53,-0.000,0.0,0.0,0.0
13/07/2023,01:54:53,0.000,0.0,0.0,0.0
13/07/2023,01:55:52,0.000,0.0,0.0,0.0
13/07/2023,01:56:53,0.000,0.0,0.0,0.0
13/07/2023,01:57:52,0.000,0.0,0.0,0.0
13/07/2023,01:58:54,-0.000,0.0,0.0,0.0
13/07/2023,01:59:54,-0.000,0.0,0.0,0.0
13/07/2023,02:00:52,0.001,0.0,0.0,0.0
13/07/2023,02:01:53,0.000,0.0,0.0,0.0
13/07/2023,02:02:52,0.000,0.0,0.0,0.0
13/07/2023,02:03:52,-0.000,0.0,0.0,0.0
13/07/2023,02:04:53,-0.000,0.0,0.0,0.0
13/07/2023,02:05:53,0.000,0.0,0.0,0.0
13/07/2023,02:06:52,0.000,0.0,0.0,0.0
13/07/2023,02:07:53,-0.000,0.0,0.0,0.0
13/07/2023,02:08:52,0.000,0.0,0.0,0.0
13/07/2023,02:09:53,0.000,0.0,0.0,0.0
13/07/2023,02:10:52,0.000,0.0,0.0,0.0
13/07/2023,02:11:52,0.000,0.0,0.0,0.0
13/07/2023,02:12:52,0.000,0.0,0.0,0.0
13/07/2023,02:13:53,0.001,0.0,0.0,0.0
13/07/2023,02:14:53,-0.000,0.0,0.0,0.0
13/07/2023,02:15:52,0.000,0.0,0.0,0.0
13/07/2023,02:16:52,0.000,0.0,0.0,0.0
13/07/2023,02:17:52,-0.000,0.0,0.0,0.0
13/07/2023,02:18:53,0.000,0.0,0.0,0.0
13/07/2023,02:19:52,0.001,0.0,0.0,0.0
13/07/2023,02:20:53,-0.000,0.0,0.0,0.0
13/07/2023,02:21:53,0.001,0.0,0.0,0.0
13/07/2023,02:22:52,0.000,0.0,0.0,0.0
13/07/2023,02:23:52,0.000,0.0,0.0,0.0
13/07/2023,02:24:53,0.000,0.0,0.0,0.0
13/07/2023,02:25:52,0.000,0.0,0.0,0.0
13/07/2023,02:26:53,0.000,0.0,0.0,0.0
13/07/2023,02:27:52,-0.000,0.0,0.0,0.0
13/07/2023,02:28:52,0.000,0.0,0.0,0.0
13/07/2023,02:29:53,0.000,0.0,0.0,0.0
13/07/2023,02:30:53,0.000,0.0,0.0,0.0
13/07/2023,02:31:52,0.000,0.0,0.0,0.0
13/07/2023,02:32:53,0.000,0.0,0.0,0.0
13/07/2023,02:33:53,-0.000,0.0,0.0,0.0
13/07/2023,02:34:52,0.001,0.0,0.0,0.0
13/07/2023,02:35:53,0.000,0.0,0.0,0.0
13/07/2023,02:36:52,-0.000,0.0,0.0,0.0
13/07/2023,02:37:53,0.000,0.0,0.0,0.0
13/07/2023,02:38:53,0.000,0.0,0.0,0.0
13/07/2023,02:39:52,-0.000,0.0,0.0,0.0
13/07/2023,02:40:53,-0.000,0.0,0.0,0.0
13/07/2023,02:41:53,0.000,0.0,0.0,0.0
13/07/2023,02:42:52,0.001,0.0,0.0,0.0
13/07/2023,02:43:53,0.001,0.0,0.0,0.0
13/07/2023,02:44:52,0.000,0.0,0.0,0.0
13/07/2023,02:45:54,0.000,0.0,0.0,0.0
13/07/2023,02:46:52,0.002,0.0,0.0,0.0
13/07/2023,02:47:53,0.001,0.0,0.0,0.0
13/07/2023,02:48:53,0.001,0.0,0.0,0.0
13/07/2023,02:49:53,0.001,0.0,0.0,0.0
13/07/2023,02:50:52,-0.000,0.0,0.0,0.0
13/07/2023,02:51:52,-0.000,0.0,0.0,0.0
13/07/2023,02:52:53,0.001,0.0,0.0,0.0
13/07/2023,02:53:53,0.000,0.0,0.0,0.0
13/07/2023,02:54:53,0.001,0.0,0.0,0.0
13/07/2023,02:55:52,0.000,0.0,0.0,0.0
13/07/2023,02:56:52,0.000,0.0,0.0,0.0
13/07/2023,02:57:53,0.001,0.0,0.0,0.0
13/07/2023,02:58:53,0.001,0.0,0.0,0.0
13/07/2023,02:59:52,0.001,0.0,0.0,0.0
13/07/2023,03:00:53,0.001,0.0,0.0,0.0
13/07/2023,03:01:52,0.001,0.0,0.0,0.0
13/07/2023,03:02:53,0.001,0.0,0.0,0.0
13/07/2023,03:03:52,-0.000,0.0,0.0,0.0
13/07/2023,03:04:53,0.000,0.0,0.0,0.0
13/07/2023,03:05:52,0.001,0.0,0.0,0.0
13/07/2023,03:06:52,-0.000,0.0,0.0,0.0
13/07/2023,03:07:52,0.000,0.0,0.0,0.0
13/07/2023,03:08:53,0.001,0.0,0.0,0.0
13/07/2023,03:09:52,-0.000,0.0,0.0,0.0
13/07/2023,03:10:53,-0.000,0.0,0.0,0.0
13/07/2023,03:11:53,0.001,0.0,0.0,0.0
13/07/2023,03:12:52,0.001,0.0,0.0,0.0
13/07/2023,03:13:53,0.001,0.0,0.0,0.0
13/07/2023,03:14:52,0.001,0.0,0.0,0.0
13/07/2023,03:15:53,0.001,0.0,0.0,0.0
13/07/2023,03:16:52,0.001,0.0,0.0,0.0
13/07/2023,03:17:53,0.001,0.0,0.0,0.0
13/07/2023,03:18:52,0.001,0.0,0.0,0.0
13/07/2023,03:19:53,0.001,0.0,0.0,0.0
13/07/2023,03:20:52,0.001,0.0,0.0,0.0
13/07/2023,03:21:53,0.001,0.0,0.0,0.0
13/07/2023,03:22:53,0.001,0.0,0.0,0.0
13/07/2023,03:23:53,0.001,0.0,0.0,0.0
13/07/2023,03:24:52,0.001,0.0,0.0,0.0
13/07/2023,03:25:53,0.001,0.0,0.0,0.0
13/07/2023,03:26:53,0.001,0.0,0.0,0.0
13/07/2023,03:27:53,0.000,0.0,0.0,0.0
13/07/2023,03:28:52,0.001,0.0,0.0,0.0
13/07/2023,03:29:52,0.001,0.0,0.0,0.0
13/07/2023,03:30:53,0.001,0.0,0.0,0.0
13/07/2023,03:31:53,0.001,0.0,0.0,0.0
13/07/2023,03:32:52,0.000,0.0,0.0,0.0
13/07/2023,03:33:53,0.000,0.0,0.0,0.0
13/07/2023,03:34:52,0.001,0.0,0.0,0.0
13/07/2023,03:35:53,0.002,0.0,0.0,0.0
13/07/2023,03:36:53,0.001,0.0,0.0,0.0
13/07/2023,03:37:53,0.000,0.0,0.0,0.0
13/07/2023,03:38:52,0.001,0.0,0.0,0.0
13/07/2023,03:39:52,0.001,0.0,0.0,0.0
13/07/2023,03:40:52,0.001,0.0,0.0,0.0
13/07/2023,03:41:53,0.002,0.0,0.0,0.0
13/07/2023,03:42:53,0.001,0.0,0.0,0.0
13/07/2023,03:43:52,0.001,0.0,0.0,0.0
13/07/2023,03:44:53,0.001,0.0,0.0,0.0
13/07/2023,03:45:53,0.002,0.0,0.0,0.0
13/07/2023,03:46:52,0.000,0.0,0.0,0.0
13/07/2023,03:47:53,0.001,0.0,0.0,0.0
13/07/2023,03:48:53,0.001,0.0,0.0,0.0
13/07/2023,03:49:53,0.001,0.0,0.0,0.0
13/07/2023,03:50:52,0.001,0.0,0.0,0.0
13/07/2023,03:51:52,0.002,0.0,0.0,0.0
13/07/2023,03:52:53,0.002,0.0,0.0,0.0
13/07/2023,03:53:53,0.002,0.0,0.0,0.0
13/07/2023,03:54:52,0.002,0.0,0.0,0.0
13/07/2023,03:55:53,0.002,0.0,0.0,0.0
13/07/2023,03:56:52,0.002,0.0,0.0,0.0
13/07/2023,03:57:53,0.002,0.0,0.0,0.0
13/07/2023,03:58:52,0.002,0.0,0.0,0.0
13/07/2023,03:59:53,0.001,0.0,0.0,0.0
13/07/2023,04:00:53,0.003,0.0,0.0,0.0
13/07/2023,04:01:53,0.002,0.0,0.0,0.0
13/07/2023,04:02:52,0.002,0.0,0.0,0.0
13/07/2023,04:03:53,0.002,0.0,0.0,0.0
13/07/2023,04:04:53,0.003,0.0,0.0,0.0
13/07/2023,04:05:53,0.004,0.0,0.0,0.0
13/07/2023,04:06:52,0.003,0.0,0.0,0.0
13/07/2023,04:07:52,0.003,0.0,0.0,0.0
13/07/2023,04:08:53,0.002,0.0,0.0,0.0
13/07/2023,04:09:53,0.003,0.0,0.0,0.0
13/07/2023,04:10:52,0.004,0.0,0.0,0.0
13/07/2023,04:11:53,0.004,0.0,0.0,0.0
13/07/2023,04:12:53,0.004,0.0,0.0,0.0
13/07/2023,04:13:52,0.004,0.0,0.0,0.0
13/07/2023,04:14:52,0.004,0.0,0.0,0.0
13/07/2023,04:15:53,0.004,0.0,0.0,0.0
13/07/2023,04:16:53,0.005,0.0,0.0,0.0
13/07/2023,04:17:52,0.005,0.0,0.0,0.0
13/07/2023,04:18:53,0.006,0.0,0.0,0.0
13/07/2023,04:19:53,0.005,0.0,0.0,0.0
13/07/2023,04:20:52,0.006,0.0,0.0,0.0
13/07/2023,04:21:54,0.006,0.0,0.0,0.0
13/07/2023,04:22:54,0.006,0.0,0.0,0.0
13/07/2023,04:23:52,0.006,0.0,0.0,0.0
13/07/2023,04:24:53,0.006,0.0,0.0,0.0
13/07/2023,04:25:53,0.006,0.0,0.0,0.0
13/07/2023,04:26:52,0.006,0.0,0.0,0.0
13/07/2023,04:27:53,0.007,0.0,0.001,0.001
13/07/2023,04:28:52,0.007,0.0,0.001,0.0
13/07/2023,04:29:53,0.007,0.0,0.001,0.0
13/07/2023,04:30:52,0.007,0.0,0.001,0.0
13/07/2023,04:31:53,0.008,0.0,0.001,0.0
13/07/2023,04:32:52,0.008,0.0,0.001,0.0
13/07/2023,04:33:53,0.010,0.0,0.001,0.0
13/07/2023,04:34:52,0.008,0.0,0.001,0.0
13/07/2023,04:35:52,0.010,0.0,0.002,0.001
13/07/2023,04:36:53,0.010,0.0,0.002,0.0
13/07/2023,04:38:22,0.009,0.0,0.002,0.0
13/07/2023,04:39:53,0.009,0.0,0.002,0.0
13/07/2023,04:40:53,0.010,0.0,0.002,0.0
13/07/2023,04:41:53,0.010,0.0,0.003,0.001
13/07/2023,04:42:52,0.012,0.0,0.003,0.0
13/07/2023,04:43:52,0.013,0.0,0.003,0.0
13/07/2023,04:44:53,0.014,0.0,0.003,0.0
13/07/2023,04:45:53,0.016,0.0,0.003,0.0
13/07/2023,04:46:52,0.016,0.0,0.004,0.001
13/07/2023,04:47:53,0.018,0.0,0.004,0.0
13/07/2023,04:48:52,0.017,0.0,0.004,0.0
13/07/2023,04:49:52,0.018,0.0,0.004,0.0
13/07/2023,04:50:53,0.019,0.0,0.005,0.001
13/07/2023,04:51:52,0.020,0.0,0.005,0.0
13/07/2023,04:52:53,0.019,0.0,0.005,0.0
13/07/2023,04:53:52,0.020,0.0,0.006,0.001
13/07/2023,04:54:52,0.021,0.0,0.006,0.0
13/07/2023,04:55:53,0.022,0.0,0.006,0.0
13/07/2023,04:56:52,0.022,0.0,0.007,0.001
13/07/2023,04:57:53,0.023,0.0,0.007,0.0
13/07/2023,04:58:53,0.023,0.0,0.008,0.001
13/07/2023,04:59:52,0.025,0.0,0.008,0.0
13/07/2023,05:00:53,0.025,0.0,0.008,0.0
13/07/2023,05:01:53,0.024,0.0,0.009,0.001
13/07/2023,05:02:53,0.026,0.0,0.009,0.0
13/07/2023,05:03:53,0.026,0.0,0.01,0.001
13/07/2023,05:04:53,0.026,0.0,0.01,0.0
13/07/2023,05:05:52,0.026,0.0,0.011,0.001
13/07/2023,05:06:53,0.027,0.0,0.011,0.0
13/07/2023,05:07:53,0.027,0.0,0.011,0.0
13/07/2023,05:08:53,0.027,0.0,0.012,0.001
13/07/2023,05:09:53,0.027,0.0,0.012,0.0
13/07/2023,05:10:53,0.028,0.0,0.013,0.001
13/07/2023,05:11:52,0.027,0.0,0.013,0.0
13/07/2023,05:12:53,0.028,0.0,0.014,0.001
13/07/2023,05:13:53,0.030,0.0,0.014,0.0
13/07/2023,05:14:53,0.031,0.0,0.015,0.001
13/07/2023,05:15:53,0.033,0.0,0.015,0.0
13/07/2023,05:16:53,0.034,0.0,0.016,0.001
13/07/2023,05:17:52,0.035,0.0,0.016,0.0
13/07/2023,05:18:53,0.036,0.0,0.017,0.001
13/07/2023,05:19:53,0.037,0.0,0.018,0.001
13/07/2023,05:20:53,0.039,0.0,0.018,0.0
13/07/2023,05:21:53,0.040,0.0,0.019,0.001
13/07/2023,05:22:53,0.041,0.0,0.02,0.001
13/07/2023,05:23:52,0.043,0.0,0.02,0.0
13/07/2023,05:24:53,0.044,0.0,0.021,0.001
13/07/2023,05:25:53,0.046,0.0,0.022,0.001
13/07/2023,05:26:53,0.047,0.0,0.023,0.001
13/07/2023,05:27:52,0.049,0.0,0.023,0.0
13/07/2023,05:28:53,0.050,0.0,0.024,0.001
13/07/2023,05:29:53,0.052,0.0,0.025,0.001
13/07/2023,05:30:53,0.054,0.0,0.026,0.001
13/07/2023,05:31:53,0.054,0.0,0.027,0.001
13/07/2023,05:32:53,0.056,0.0,0.028,0.001
13/07/2023,05:33:52,0.057,0.0,0.029,0.001
13/07/2023,05:34:53,0.058,0.0,0.03,0.001
13/07/2023,05:35:53,0.059,0.0,0.031,0.001
13/07/2023,05:36:52,0.061,0.0,0.032,0.001
13/07/2023,05:37:53,0.064,0.0,0.033,0.001
13/07/2023,05:38:53,0.065,0.0,0.034,0.001
13/07/2023,05:39:52,0.067,0.0,0.035,0.001
13/07/2023,05:41:15,0.070,0.0,0.036,0.001
13/07/2023,05:42:53,0.072,0.0,0.038,0.002
13/07/2023,05:43:53,0.073,0.0,0.04,0.002
13/07/2023,05:44:53,0.075,0.0,0.041,0.001
13/07/2023,05:45:53,0.077,0.0,0.042,0.001
13/07/2023,05:46:53,0.077,0.0,0.043,0.001
13/07/2023,05:47:53,0.079,0.0,0.045,0.002
13/07/2023,05:48:53,0.080,0.0,0.046,0.001
13/07/2023,05:49:53,0.082,0.0,0.047,0.001
13/07/2023,05:50:53,0.084,0.0,0.049,0.002
13/07/2023,05:51:53,0.085,0.0,0.05,0.001
13/07/2023,05:52:52,0.087,0.0,0.051,0.001
13/07/2023,05:53:53,0.089,0.0,0.053,0.002
13/07/2023,05:54:53,0.089,0.0,0.054,0.001
13/07/2023,05:55:53,0.092,0.0,0.056,0.002
13/07/2023,05:56:52,0.094,0.0,0.058,0.002
13/07/2023,05:57:53,0.094,0.0,0.059,0.001
13/07/2023,05:58:53,0.094,0.0,0.061,0.002
13/07/2023,05:59:53,0.096,0.0,0.062,0.001
13/07/2023,06:00:53,0.097,0.0,0.064,0.002
13/07/2023,06:01:53,0.097,0.0,0.066,0.002
13/07/2023,06:02:53,0.098,0.0,0.067,0.001
13/07/2023,06:03:53,0.100,0.0,0.069,0.002
13/07/2023,06:04:53,0.098,0.0,0.07,0.001
13/07/2023,06:05:53,0.099,0.0,0.072,0.002
13/07/2023,06:06:53,0.098,0.0,0.074,0.002
13/07/2023,06:07:52,0.097,0.0,0.075,0.001
13/07/2023,06:08:53,0.095,0.0,0.077,0.002
13/07/2023,06:09:53,0.092,0.0,0.078,0.001
13/07/2023,06:10:53,0.091,0.0,0.08,0.002
13/07/2023,06:11:53,0.092,0.0,0.082,0.002
13/07/2023,06:12:53,0.093,0.0,0.083,0.001
13/07/2023,06:13:53,0.094,0.0,0.085,0.002
13/07/2023,06:14:53,0.094,0.0,0.086,0.001
13/07/2023,06:15:53,0.095,0.0,0.088,0.002
13/07/2023,06:16:53,0.097,0.0,0.089,0.001
13/07/2023,06:17:53,0.099,0.0,0.091,0.002
13/07/2023,06:18:53,0.098,0.0,0.093,0.002
13/07/2023,06:19:53,0.092,0.0,0.094,0.001
13/07/2023,06:20:52,0.087,0.0,0.096,0.002
13/07/2023,06:21:53,0.088,0.0,0.097,0.001
13/07/2023,06:22:53,0.091,0.0,0.099,0.002
13/07/2023,06:23:53,0.086,0.0,0.1,0.001
13/07/2023,06:24:52,0.088,0.0,0.102,0.002
13/07/2023,06:25:53,0.092,0.0,0.103,0.001
13/07/2023,06:26:53,0.092,0.0,0.105,0.002
13/07/2023,06:27:53,0.099,0.0,0.106,0.001
13/07/2023,06:28:53,0.108,0.0,0.108,0.002
13/07/2023,06:29:53,0.114,0.0,0.11,0.002
13/07/2023,06:30:53,0.118,0.0,0.112,0.002
13/07/2023,06:31:53,0.121,0.0,0.114,0.002
13/07/2023,06:32:53,0.124,0.0,0.116,0.002
13/07/2023,06:33:53,0.126,0.0,0.118,0.002
13/07/2023,06:34:53,0.129,0.0,0.12,0.002
13/07/2023,06:35:53,0.127,0.0,0.122,0.002
13/07/2023,06:36:53,0.126,0.0,0.124,0.002
13/07/2023,06:37:53,0.126,0.0,0.126,0.002
13/07/2023,06:38:53,0.132,0.0,0.128,0.002
13/07/2023,06:39:53,0.134,0.0,0.131,0.003
13/07/2023,06:40:52,0.137,0.0,0.133,0.002
13/07/2023,06:41:53,0.137,0.0,0.135,0.002
13/07/2023,06:42:53,0.138,0.0,0.137,0.002
13/07/2023,06:43:53,0.141,0.0,0.14,0.003
13/07/2023,06:44:53,0.146,0.0,0.142,0.002
13/07/2023,06:45:53,0.149,0.0,0.145,0.003
13/07/2023,06:46:53,0.156,0.0,0.147,0.002
13/07/2023,06:47:53,0.162,0.0,0.15,0.003
13/07/2023,06:48:53,0.163,0.0,0.152,0.002
13/07/2023,06:49:53,0.161,0.0,0.155,0.003
13/07/2023,06:50:53,0.159,0.0,0.158,0.003
13/07/2023,06:51:53,0.169,0.0,0.161,0.003
13/07/2023,06:52:53,0.177,0.0,0.164,0.003
13/07/2023,06:53:53,0.182,0.0,0.166,0.002
13/07/2023,06:54:53,0.188,0.0,0.169,0.003
13/07/2023,06:55:53,0.194,0.0,0.173,0.004
13/07/2023,06:56:53,0.199,0.0,0.176,0.003
13/07/2023,06:57:53,0.206,0.0,0.179,0.003
13/07/2023,06:58:53,0.212,0.0,0.183,0.004
13/07/2023,06:59:53,0.217,0.0,0.186,0.003
13/07/2023,07:00:52,0.228,1.0,0.19,0.004
13/07/2023,07:01:53,0.235,1.0,0.194,0.004
13/07/2023,07:02:53,0.243,1.0,0.198,0.004
13/07/2023,07:03:53,0.246,1.0,0.202,0.004
13/07/2023,07:04:53,0.248,1.0,0.206,0.004
13/07/2023,07:05:53,0.259,1.0,0.21,0.004
13/07/2023,07:06:53,0.273,1.0,0.215,0.005
13/07/2023,07:07:54,0.268,1.0,0.219,0.004
13/07/2023,07:08:53,0.269,1.0,0.224,0.005
13/07/2023,07:09:53,0.266,1.0,0.228,0.004
13/07/2023,07:10:53,0.278,1.0,0.233,0.005
13/07/2023,07:11:53,0.297,1.0,0.238,0.005
13/07/2023,07:12:53,0.314,1.0,0.243,0.005
13/07/2023,07:13:53,0.296,1.0,0.248,0.005
13/07/2023,07:14:53,0.298,1.0,0.253,0.005
13/07/2023,07:15:53,0.308,1.0,0.258,0.005
13/07/2023,07:16:53,0.320,1.0,0.263,0.005
13/07/2023,07:17:53,0.354,1.0,0.268,0.005
13/07/2023,07:18:53,0.365,1.0,0.274,0.006
13/07/2023,07:19:53,0.353,1.0,0.281,0.007
13/07/2023,07:20:53,0.380,1.0,0.287,0.006
13/07/2023,07:21:53,0.390,1.0,0.293,0.006
13/07/2023,07:23:22,0.396,1.0,0.303,0.01
13/07/2023,07:24:54,0.403,1.0,0.313,0.01
13/07/2023,07:25:53,0.412,1.0,0.32,0.007
13/07/2023,07:26:53,0.419,1.0,0.326,0.006
13/07/2023,07:27:53,0.412,1.0,0.333,0.007
13/07/2023,07:28:53,0.412,1.0,0.34,0.007
13/07/2023,07:29:53,0.420,1.0,0.347,0.007
13/07/2023,07:30:53,0.410,1.0,0.354,0.007
13/07/2023,07:31:53,0.371,1.0,0.36,0.006
13/07/2023,07:32:53,0.384,1.0,0.367,0.007
13/07/2023,07:33:53,0.399,1.0,0.373,0.006
13/07/2023,07:34:54,0.438,1.0,0.38,0.007
13/07/2023,07:35:53,0.420,1.0,0.387,0.007
13/07/2023,07:36:53,0.400,1.0,0.394,0.007
13/07/2023,07:37:53,0.403,1.0,0.401,0.007
13/07/2023,07:38:53,0.470,1.0,0.408,0.007
13/07/2023,07:39:53,0.461,1.0,0.415,0.007
13/07/2023,07:40:53,0.476,1.0,0.423,0.008
13/07/2023,07:41:53,0.477,1.0,0.431,0.008
13/07/2023,07:42:53,0.436,1.0,0.438,0.007
13/07/2023,07:43:53,0.415,1.0,0.446,0.008
13/07/2023,07:44:53,0.430,1.0,0.453,0.007
13/07/2023,07:45:54,0.418,1.0,0.46,0.007
13/07/2023,07:46:53,0.442,1.0,0.467,0.007
13/07/2023,07:47:53,0.438,1.0,0.474,0.007
13/07/2023,07:48:53,0.465,1.0,0.482,0.008
13/07/2023,07:49:54,0.480,1.0,0.49,0.008
13/07/2023,07:50:53,0.570,1.0,0.499,0.009
13/07/2023,07:51:53,0.575,1.0,0.509,0.01
13/07/2023,07:52:53,0.594,1.0,0.519,0.01
13/07/2023,07:53:53,0.603,1.0,0.529,0.01
13/07/2023,07:54:54,0.611,1.0,0.539,0.01
13/07/2023,07:55:53,0.505,1.0,0.548,0.009
13/07/2023,07:56:53,0.504,1.0,0.557,0.009
13/07/2023,07:57:53,0.609,1.0,0.567,0.01
13/07/2023,07:58:53,0.502,1.0,0.575,0.008
13/07/2023,07:59:53,0.578,1.0,0.585,0.01
13/07/2023,08:00:53,0.505,1.0,0.594,0.009
13/07/2023,08:01:53,0.539,1.0,0.603,0.009
13/07/2023,08:02:53,0.497,1.0,0.611,0.008
13/07/2023,08:03:53,0.537,1.0,0.62,0.009
13/07/2023,08:04:53,0.675,2.0,0.629,0.009
13/07/2023,08:05:53,0.686,2.0,0.64,0.011
13/07/2023,08:06:53,0.630,1.0,0.651,0.011
13/07/2023,08:07:53,0.667,2.0,0.662,0.011
13/07/2023,08:08:52,0.610,1.0,0.672,0.01
13/07/2023,08:09:53,0.580,1.0,0.683,0.011
13/07/2023,08:10:53,0.550,1.0,0.692,0.009
13/07/2023,08:11:53,0.542,1.0,0.702,0.01
13/07/2023,08:12:53,0.544,1.0,0.712,0.01
13/07/2023,08:13:53,0.590,1.0,0.721,0.009
13/07/2023,08:14:53,0.731,2.0,0.732,0.011
13/07/2023,08:15:53,0.597,1.0,0.744,0.012
13/07/2023,08:16:53,0.744,2.0,0.755,0.011
13/07/2023,08:17:53,0.582,1.0,0.765,0.01
13/07/2023,08:18:53,0.617,1.0,0.775,0.01
13/07/2023,08:19:53,0.715,2.0,0.786,0.011
13/07/2023,08:20:54,0.783,2.0,0.799,0.013
13/07/2023,08:21:53,0.769,2.0,0.812,0.013
13/07/2023,08:22:53,0.621,1.0,0.823,0.011
13/07/2023,08:23:53,0.649,1.0,0.833,0.01
13/07/2023,08:24:53,0.779,2.0,0.846,0.013
13/07/2023,08:25:53,0.691,2.0,0.858,0.012
13/07/2023,08:26:53,0.797,2.0,0.87,0.012
13/07/2023,08:27:53,0.680,2.0,0.883,0.013
13/07/2023,08:28:53,0.638,1.0,0.894,0.011
13/07/2023,08:29:53,0.624,1.0,0.905,0.011
13/07/2023,08:30:53,0.597,1.0,0.915,0.01
13/07/2023,08:31:53,0.583,1.0,0.924,0.009
13/07/2023,08:32:53,0.587,1.0,0.935,0.011
13/07/2023,08:33:54,0.594,1.0,0.944,0.009
13/07/2023,08:34:53,0.603,1.0,0.954,0.01
13/07/2023,08:35:53,0.645,1.0,0.965,0.011
13/07/2023,08:36:53,0.715,2.0,0.976,0.011
13/07/2023,08:37:53,0.662,2.0,0.987,0.011
13/07/2023,08:38:53,0.703,2.0,1.0,0.013
13/07/2023,08:39:53,0.837,2.0,1.012,0.012
13/07/2023,08:40:54,0.851,2.0,1.026,0.014
13/07/2023,08:41:53,0.861,2.0,1.04,0.014
13/07/2023,08:42:54,0.701,2.0,1.052,0.012
13/07/2023,08:43:53,0.803,2.0,1.065,0.013
13/07/2023,08:44:53,0.938,2.0,1.081,0.016
13/07/2023,08:45:53,0.785,2.0,1.096,0.015
13/07/2023,08:46:53,0.825,2.0,1.109,0.013
13/07/2023,08:47:53,0.962,2.0,1.125,0.016
13/07/2023,08:48:54,0.792,2.0,1.14,0.015
13/07/2023,08:49:53,0.855,2.0,1.153,0.013
13/07/2023,08:50:53,0.648,1.0,1.165,0.012
13/07/2023,08:51:53,0.759,2.0,1.176,0.011
13/07/2023,08:52:53,0.572,1.0,1.188,0.012
13/07/2023,08:53:53,0.601,1.0,1.197,0.009
13/07/2023,08:54:54,0.663,2.0,1.208,0.011
13/07/2023,08:55:53,0.773,2.0,1.22,0.012
13/07/2023,08:56:53,0.895,2.0,1.235,0.015
13/07/2023,08:57:54,0.861,2.0,1.25,0.015
13/07/2023,08:58:53,0.906,2.0,1.264,0.014
13/07/2023,08:59:53,0.934,2.0,1.28,0.016
13/07/2023,09:00:54,0.980,2.0,1.296,0.016
13/07/2023,09:01:53,1.091,3.0,1.314,0.018
13/07/2023,09:02:53,1.047,2.0,1.33,0.016
13/07/2023,09:03:53,0.966,2.0,1.347,0.017
13/07/2023,09:04:54,0.962,2.0,1.364,0.017
13/07/2023,09:05:53,0.895,2.0,1.379,0.015
13/07/2023,09:06:53,0.975,2.0,1.394,0.015
13/07/2023,09:07:53,1.035,2.0,1.412,0.018
13/07/2023,09:08:53,0.930,2.0,1.427,0.015
13/07/2023,09:09:53,1.104,3.0,1.445,0.018
13/07/2023,09:10:53,1.138,3.0,1.461,0.016
13/07/2023,09:11:53,0.998,2.0,1.477,0.016
13/07/2023,09:12:53,0.667,2.0,1.49,0.013
13/07/2023,09:13:53,0.605,1.0,1.501,0.011
13/07/2023,09:14:53,0.578,1.0,1.511,0.01
13/07/2023,09:15:53,0.562,1.0,1.52,0.009
13/07/2023,09:16:53,0.569,1.0,1.529,0.009
13/07/2023,09:17:53,0.590,1.0,1.539,0.01
13/07/2023,09:18:54,0.627,1.0,1.549,0.01
13/07/2023,09:19:53,0.676,2.0,1.56,0.011
13/07/2023,09:20:53,0.714,2.0,1.572,0.012
13/07/2023,09:21:53,0.790,2.0,1.584,0.012
13/07/2023,09:22:53,0.795,2.0,1.597,0.013
13/07/2023,09:23:53,0.830,2.0,1.61,0.013
13/07/2023,09:24:54,0.833,2.0,1.624,0.014
13/07/2023,09:25:53,0.924,2.0,1.638,0.014
13/07/2023,09:26:54,0.995,2.0,1.655,0.017
13/07/2023,09:27:53,1.072,2.0,1.672,0.017
13/07/2023,09:28:53,1.045,2.0,1.69,0.018
13/07/2023,09:29:53,0.894,2.0,1.707,0.017
13/07/2023,09:30:53,0.859,2.0,1.721,0.014
13/07/2023,09:31:53,0.846,2.0,1.735,0.014
13/07/2023,09:32:53,0.854,2.0,1.749,0.014
13/07/2023,09:33:53,0.866,2.0,1.764,0.015
13/07/2023,09:34:54,0.889,2.0,1.779,0.015
13/07/2023,09:35:53,0.907,2.0,1.794,0.015
13/07/2023,09:36:54,0.965,2.0,1.809,0.015
13/07/2023,09:37:53,0.895,2.0,1.824,0.015
13/07/2023,09:38:53,0.866,2.0,1.839,0.015
13/07/2023,09:39:53,0.815,2.0,1.852,0.013
13/07/2023,09:40:53,0.810,2.0,1.866,0.014
13/07/2023,09:41:53,0.810,2.0,1.88,0.014
13/07/2023,09:42:53,0.816,2.0,1.893,0.013
13/07/2023,09:43:53,0.831,2.0,1.907,0.014
13/07/2023,09:44:53,0.852,2.0,1.921,0.014
13/07/2023,09:45:54,0.868,2.0,1.936,0.015
13/07/2023,09:46:53,0.874,2.0,1.95,0.014
13/07/2023,09:47:54,0.886,2.0,1.965,0.015
13/07/2023,09:48:53,0.946,2.0,1.98,0.015
13/07/2023,09:49:53,0.986,2.0,1.996,0.016
13/07/2023,09:50:54,0.982,2.0,2.013,0.017
13/07/2023,09:51:53,0.886,2.0,2.028,0.015
13/07/2023,09:52:54,0.858,2.0,2.043,0.015
13/07/2023,09:53:53,0.827,2.0,2.056,0.013
13/07/2023,09:55:22,0.826,2.0,2.077,0.021
13/07/2023,09:56:54,0.852,2.0,2.098,0.021
13/07/2023,09:57:53,0.862,2.0,2.113,0.015